This demonstration page uses our WeatherBlox Daily Observations layout. Learn more.

Left ArrowRight Arrow

Hourly Observations for June 28, 2022

Temp ( °F °C ) Dew Point ( °F °C ) Humidity (%) Winds ( mph kmh ) Pressure ( in mb ) Visibility ( mi km ) Precip ( " mm )
12:53 am 00:53 Clear 78 25.6 41 5 27 27 NNE 6 9 29.91 1013 10 16 0.00 0.00
1:53 am 01:53 Clear 78 25.6 41 5 27 27 N 6 9 29.91 1013 10 16 0.00 0.00
2:53 am 02:53 Clear 75 23.9 44 6.7 33 33 N 3 6 29.92 1013 10 16 0.00 0.00
3:53 am 03:53 Clear 71 21.7 45 7.2 39 39 NE 3 6 29.93 1013 10 16 0.00 0.00
4:53 am 04:53 Clear 69 20.6 43 6.1 39 39 N 5 7 29.93 1014 10 16 0.00 0.00
5:53 am 05:53 Sunny 67 19.4 44 6.7 44 44 NNW 5 7 29.95 1014 10 16 0.00 0.00
6:53 am 06:53 Sunny 70 21.1 46 7.8 42 42 NNE 3 6 29.96 1015 10 16 0.00 0.00
7:53 am 07:53 Sunny 77 25 46 7.8 33 33 Calm 29.97 1015 10 16 0.00 0.00
8:53 am 08:53 Sunny 81 27.2 44 6.7 27 27 SSE 7 11 29.97 1015 10 16 0.00 0.00
9:53 am 09:53 Sunny 85 29.4 43 6.1 23 23 Calm 29.96 1015 10 16 0.00 0.00
10:53 am 10:53 Sunny 92 33.3 37 2.8 14 14 NNE 6 9 29.95 1014 10 16 0.00 0.00
11:53 am 11:53 Sunny 93 33.9 34 1.1 12 12 Calm 29.94 1014 10 16 0.00 0.00
12:53 pm 12:53 Sunny 95 35 29 -1.7 9 9 VRB 5 7 29.93 1014 10 16 0.00 0.00
1:53 pm 13:53 Sunny 97 36.1 30 -1.1 9 9 SSW 9 15 29.91 1013 10 16 0.00 0.00
2:53 pm 14:53 Sunny 100 37.8 29 -1.7 8 8 SSE 14 22 29.89 1012 10 16 0.00 0.00
3:53 pm 15:53 Sunny 100 37.8 30 -1.1 8 8 SSE 7 11 29.87 1012 10 16 0.00 0.00
4:53 pm 16:53 Sunny 101 38.3 28 -2.2 8 8 SSE 15 24 29.85 1011 10 16 0.00 0.00
5:53 pm 17:53 Sunny 101 38.3 31 -0.6 8 8 SSE 9 15 29.83 1010 10 16 0.00 0.00
6:53 pm 18:53 Sunny 99 37.2 34 1.1 10 10 SSE 10 17 29.82 1010 10 16 0.00 0.00
7:53 pm 19:53 Sunny 97 36.1 33 0.6 10 10 S 8 13 29.82 1010 10 16 0.00 0.00
8:53 pm 20:53 Clear 92 33.3 35 1.7 13 13 WNW 8 13 29.83 1010 10 16 0.00 0.00
9:53 pm 21:53 Clear 89 31.7 34 1.1 14 14 WNW 7 11 29.84 1011 10 16 0.00 0.00
10:53 pm 22:53 Clear 86 30 34 1.1 15 15 VRB 3 6 29.86 1011 10 16 0.00 0.00
11:53 pm 23:53 Clear 81 27.2 37 2.8 21 21 VRB 6 9 29.88 1012 10 16 0.00 0.00

Powered by AerisWeather